Torna al catalogo

SL-8 DEB

AttivoLEO
NORAD 21137·DEBRIS·🇷🇺 Russia

Lanciato Feb 12, 1991 da Plesetsk Cosmodrome

Loading…

Prossimi Passaggi (prossime 24 ore)

TLE

AggiornatoSource: Space-Track

Epoca: Sep 13, 2026, 18:52 UTC

1 21137U 91009P   26256.78640271 -.00000017  00000-0 -16706-4 0  9993
2 21137  74.0441 138.7388 0151567 220.2971 210.9785 12.18046949581316

Traccia SL-8 DEB in tempo reale con AllMySat

Download on the App Store